Location: Atherton
(17.2661°S, 145.4859°E)
Time: 23:07:25
(UTC+10:00)

Transit 2A - Pass Details

Date: 25 June 2025
Orbit: 598 x 948 km, 66.7° (Epoch: 19 July)

Event Time Altitude Azimuth Distance (km) Brightness Sun altitude
Rises 09:37:02 0° 334° (NNW) 3,367 9.5 33.0°
Reaches altitude 10° 09:39:24 10° 332° (NNW) 2,485 8.9 33.4°
Maximum altitude 09:45:12 71° 248° (WSW) 958 6.8 34.4°
Drops below altitude 10° 09:51:27 10° 164° (SSE) 2,665 8.6 35.4°
Sets 09:54:04 0° 162° (SSE) 3,627 9.2 35.8°
